This demonstration page uses our WeatherBlox Daily Observations layout. Learn more.

Left ArrowRight Arrow

Hourly Observations for June 22, 2017

Temp ( °F °C ) Dew Point ( °F °C ) Humidity (%) Winds ( mph kmh ) Pressure ( in mb ) Visibility ( mi km ) Precip ( " mm )
12:53 am 00:53 Clear with Light Rain 71 21.7 71 21.7 100 100 NNE 3 6 30.09 1019 10 16 0.01 0.25
1:53 am 01:53 Partly Cloudy with Light Rain 72 22.2 72 22.2 100 100 Calm 30.07 1018 9 14 0.03 0.76
2:53 am 02:53 Mostly Clear with Light Rain 72 22.2 72 22.2 100 100 NE 3 6 30.05 1018 9 14 0.04 1.02
3:53 am 03:53 Clear with Light Rain 72 22.2 71 21.7 97 97 E 5 7 30.04 1017 10 16 0.02 0.51
4:53 am 04:53 Mostly Clear with Light Rain 71 21.7 71 21.7 100 100 Calm 30.04 1017 10 16 0.01 0.25
5:23 am 05:23 Mostly Cloudy with Light Rain 71 21.7 71 21.7 100 100 Calm 30.03 1017 7 11 0.03 0.76
5:49 am 05:49 Mostly Cloudy with Light Rain 72 22 72 22 100 100 Calm 30.03 1017 10 16 0.03 0.76
5:53 am 05:53 Partly Cloudy 71 21.7 71 21.7 100 100 Calm 30.04 1017 10 16 0.03 0.76
6:49 am 06:49 Mostly Cloudy 72 22 72 22 100 100 NE 3 6 30.06 1018 10 16 0.01 0.25
6:53 am 06:53 Mostly Cloudy 71 21.7 71 21.7 100 100 NE 3 6 30.05 1018 10 16 0.01 0.25
7:27 am 07:27 Cloudy 72 22.2 72 22.2 100 100 ENE 6 9 30.06 1018 10 16 0.00 0.03
7:53 am 07:53 Cloudy with Light Rain 72 22.2 72 22.2 100 100 ENE 5 7 30.07 1018 9 14 0.01 0.25
8:53 am 08:53 Cloudy with Light Rain 73 22.8 73 22.8 100 100 VRB 6 9 30.09 1019 10 16 0.02 0.51
9:53 am 09:53 Cloudy 74 23.3 74 23.3 100 100 E 5 7 30.09 1019 10 16 0.00 0.03
10:33 am 10:33 Mostly Cloudy with Light Rain 75 23.9 74 23.3 96 96 E 6 9 30.09 1019 10 16 0.00 0.03
10:42 am 10:42 Mostly Cloudy with Light Rain 75 23.9 74 23.3 96 96 ESE 7 11 30.09 1019 10 16 0.00 0.03
10:53 am 10:53 Mostly Cloudy with Light Rain 75 23.9 74 23.3 96 96 VRB 3 6 30.09 1019 10 16 0.00 0.03
11:53 am 11:53 Cloudy with Light Rain 75 23.9 75 23.9 100 100 ESE 6 9 30.08 1019 7 11 0.03 0.76
12:12 pm 12:12 Cloudy with Light Rain 75 23.9 75 23.9 100 100 E 7 11 30.06 1018 7 11 0.01 0.25
12:53 pm 12:53 Cloudy 78 25.6 76 24.4 93 93 ESE 8 13 30.06 1018 7 11 0.01 0.25
1:02 pm 13:02 Mostly Cloudy 78 25.6 76 24.4 93 93 SSE 9 15 30.06 1018 10 16 0.00 0.00
1:24 pm 13:24 Mostly Cloudy 79 26.1 76 24.4 90 90 ESE 8 13 30.03 1017 10 16 0.00 0.00
1:35 pm 13:35 Mostly Cloudy 80 26.7 76 24.4 87 87 SE 8 13 30.03 1017 10 16 0.00 0.00
1:48 pm 13:48 Mostly Cloudy 81 27 75 24 84 84 ESE 8 13 30.03 1017 10 16 0.00 0.00
1:53 pm 13:53 Mostly Cloudy 80 26.7 75 23.9 85 85 SE 7 11 30.03 1017 10 16 0.00 0.00
2:07 pm 14:07 Cloudy 80 26.7 76 24.4 87 87 ESE 6 9 30.03 1017 7 11 0.00 0.00
2:53 pm 14:53 Cloudy 83 28.3 76 24.4 79 79 SE 7 11 30.01 1016 7 11 0.00 0.00
3:00 pm 15:00 Mostly Cloudy 83 28.3 75 23.9 77 77 SSE 10 17 30.00 1016 10 16 0.00 0.00
3:53 pm 15:53 Mostly Cloudy 83 28.3 75 23.9 77 77 SSE 12 19 30.00 1016 10 16 0.00 0.00
4:53 pm 16:53 Sunny 83 28.3 75 23.9 77 77 SSE 7 11 29.98 1015 10 16 0.00 0.03
5:53 pm 17:53 Cloudy with Nearby Thunderstorms 80 26.7 77 25 90 90 S 7 11 29.99 1016 4 6 0.03 0.76
6:33 pm 18:33 Mostly Sunny 79 26.1 77 25 94 94 VRB 3 6 30.00 1016 10 16 0.01 0.25
6:53 pm 18:53 Mostly Cloudy with Light Rain 79 26.1 76 24.4 90 90 SSW 3 6 29.98 1015 6 10 0.02 0.51
7:53 pm 19:53 Cloudy with Heavy Rain 75 23.9 74 23.3 96 96 SSW 9 15 29.99 1016 2 3 0.11 2.79
8:04 pm 20:04 Cloudy with Light Rain 75 23.9 74 23.3 96 96 S 3 6 29.97 1015 3 5 0.05 1.27
8:53 pm 20:53 Mostly Cloudy with Light Rain 75 23.9 75 23.9 100 100 Calm 29.99 1016 10 16 0.07 1.78
9:53 pm 21:53 Mostly Clear 75 23.9 75 23.9 100 100 Calm 29.99 1016 10 16 0.00 0.03
10:53 pm 22:53 Partly Cloudy 75 23.9 74 23.3 96 96 S 5 7 30.01 1016 10 16 0.00 0.00
11:53 pm 23:53 Partly Cloudy 74 23.3 74 23.3 100 100 Calm 30.01 1016 10 16 0.00 0.00

Powered by AerisWeather